Weather in Koshekhabl

Russia / Republic of Adygea     44°54′00″N   40°30′10″E
temp.,
°C
wind,
m/s
gust,
m/s
humid.,
%
clouds,
%
prec.,
mm/h
press.,
hPa
HPBL,
m
21 april, wed
wed2100:00+13sw9185177 0.0 1012811
03:00+11wsw61277100 0.4 1014731
06:00+8w4119125 0.4 1017533
09:00+13w477389 0.4 1018878
12:00+15w4564100 0.0 10191371
15:00+16wsw246081 0.1 10191414
18:00+14sse347936 0.2 1019170
21:00+10se359133 0.4 102169
22 april, thu
thu2200:00+9se3393100 0.0 102143
03:00+9s1192100 0.0 102114
06:00+9wsw2293100 0.0 102236
09:00+12nne128367 0.0 1022371
12:00+15e3373100 0.4 1022806
15:00+16e3369100 1.5 1021966
18:00+14e2385100 2.8 102197
21:00+12e2392100 6.0 102264
23 april, fri
fri2300:00+10wsw229120 0.2 102229
03:00+8wsw33965 0.2 102357
06:00+7sw249818 0.0 102487
09:00+13w238218 0.0 1024465
12:00+16wnw33600 0.0 10221344
15:00+18wnw33524 0.0 10211731
18:00+16nne1165100 0.0 102022
21:00+12e2268100 0.0 102015
24 april, sat
sat2400:00+11ese2268100 0.0 101824
03:00+10w3375100 0.0 101955
06:00+9sw238972 0.0 101946
09:00+15sw346313 0.0 1019592
12:00+18w6125274 0.0 10182272
15:00+18w813573 0.0 10182016
18:00+15w713655 0.0 1019546
21:00+10ene1293100 0.0 102117
25 april, sun
sun2500:00+9ssw1194100 0.0 102111
03:00+8wnw1195100 0.0 102011
06:00+9n1191100 0.0 102040
09:00+12ne2270100 0.0 1019463
12:00+9nnw3485100 1.6 1019318
15:00+8n3493100 6.9 1018332
18:00+8ne3697100 6.6 1018330
21:00+8ene2698100 9.5 1018345